Flight Track Log - Related Links

Times and Time Zones

All times are in EDT time to prevent confusion due to time zone crossing. See the N7339F flight status page for this flight to view local times or setup timezone preferences in your user account.

Time Position Orientation Groundspeed Altitude Reporting Facility
EDT Latitude Longitude Course Direction KTS MPH feet Rate Location/Type
Sat 07:54:06 PM 40.0167 -85.6833 73° East 113 130 3,500  Level Indianapolis TRACON
Sat 07:55:00 PM 40.0167 -85.6500 90° East 114 131 3,500  Level Indianapolis TRACON
Sat 07:56:00 PM 40.0333 -85.6167 57° Northeast 116 133 3,500  Level Indianapolis TRACON
Sat 07:57:00 PM 40.0333 -85.5667 90° East 115 132 3,500  Level Indianapolis TRACON
Sat 07:58:00 PM 40.0500 -85.5333 57° Northeast 114 131 3,500  Level Indianapolis TRACON
Sat 07:59:00 PM 39.9302 -85.8548 73° East  Level FlightAware Approximate
Sat 07:59:00 PM 40.0500 -85.5000 90° East 116 133 3,500  Level Indianapolis TRACON
Sat 08:00:07 PM 40.0667 -85.4500 66° East 113 130 3,500  Level Indianapolis TRACON
Sat 08:01:07 PM 40.0667 -85.4167 90° East 115 132 3,500  Level Indianapolis TRACON
Sat 08:01:49 PM 40.0803 -85.3850 61° Northeast 115 132 3,500  Level Indianapolis Center
Sat 08:02:31 PM 40.0856 -85.3561 77° East 115 132 3,500  Level Indianapolis Center
Sat 08:03:32 PM 40.0925 -85.3161 77° East 114 131 3,500  Level Indianapolis Center
Sat 08:04:32 PM 40.1011 -85.2767 74° East 114 131 3,500  Level Indianapolis Center
Sat 08:05:39 PM 40.1086 -85.2314 78° East 113 130 3,500  Level Indianapolis Center
Sat 08:06:40 PM 40.1175 -85.1892 75° East 115 132 3,500  Level Indianapolis Center
Sat 08:07:40 PM 40.1261 -85.1497 74° East 114 131 3,500 -198 Level Indianapolis Center
Sat 08:08:41 PM 40.1333 -85.1072 77° East 121 139 3,100 Descending Indianapolis Center
Sat 08:10:00 PM 40.1404 -85.0049 72° East  Level FlightAware Approximate
Sat 08:17:00 PM 40.1677 -84.9294 66° East  Level Estimated
Sat 08:18:00 PM 40.1677 -84.9294 66° East  Level Estimated
Sat 08:19:00 PM 40.1677 -84.9294 66° East  Level Estimated
Sat 08:20:00 PM 40.1677 -84.9294 66° East  Level Estimated
Sat 08:21:00 PM 40.1677 -84.9294 66° East  Level Estimated
Sat 08:22:00 PM 40.1677 -84.9294 66° East  Level Estimated
Sat 08:23:00 PM 40.1677 -84.9294 66° East  Level Estimated
Sat 08:24:00 PM 40.1677 -84.9294 66° East  Level Estimated
Sat 08:25:00 PM 40.1677 -84.9294 66° East  Level Estimated
Sat 08:26:00 PM 40.1677 -84.9294 66° East  Level Estimated
Sat 08:27:00 PM 40.1677 -84.9294 66° East  Level Estimated
Sat 08:28:00 PM 40.1677 -84.9294 66° East  Level Estimated
Sat 08:29:00 PM 40.1677 -84.9294 66° East  Level Estimated
Sat 09:56:28 PM 40.1167 -85.1333 66° East 97 112 4,000  Level Indianapolis TRACON
Sat 09:57:04 PM 40.1167 -85.1500 270° West 101 116 4,300 438 Climbing Indianapolis TRACON
Sat 09:58:04 PM 40.1167 -85.1833 270° West 95 109 4,700 100 Climbing Indianapolis TRACON
Sat 09:59:04 PM 40.1000 -85.2167 237° Southwest 117 135 4,500 -104 Descending Indianapolis TRACON
Sat 09:59:59 PM 40.1000 -85.2667 270° West 120 138 4,500  Level Indianapolis TRACON
Sat 10:00:59 PM 40.0833 -85.3000 237° Southwest 108 124 4,500  Level Indianapolis TRACON
Sat 10:01:59 PM 40.0833 -85.3333 270° West 111 128 4,500  Level Indianapolis TRACON
Sat 10:02:59 PM 40.0667 -85.3667 237° Southwest 111 128 4,500  Level Indianapolis TRACON
Sat 10:03:59 PM 40.0667 -85.4167 270° West 111 128 4,500  Level Indianapolis TRACON
Sat 10:04:59 PM 40.0667 -85.4500 270° West 111 128 4,500  Level Indianapolis TRACON
Sat 10:05:59 PM 40.0500 -85.4833 237° Southwest 110 127 4,500  Level Indianapolis TRACON
Sat 10:07:05 PM 40.0500 -85.5333 270° West 112 129 4,500  Level Indianapolis TRACON
Sat 10:08:05 PM 40.0333 -85.5667 237° Southwest 110 127 4,500  Level Indianapolis TRACON
Sat 10:08:59 PM 40.0333 -85.6000 270° West 110 127 4,500  Level Indianapolis TRACON
Sat 10:09:59 PM 40.0167 -85.6500 246° West 110 127 4,500 -50 Level Indianapolis TRACON
Sat 10:10:59 PM 40.0167 -85.6833 270° West 111 128 4,400 -250 Descending Indianapolis TRACON
Sat 10:11:59 PM 40.0000 -85.7333 246° West 123 142 4,000 -400 Descending Indianapolis TRACON
Sat 10:12:59 PM 40.0000 -85.7667 270° West 130 150 3,600 -500 Descending Indianapolis TRACON
Sat 10:13:59 PM 39.9833 -85.8167 247° West 126 145 3,000 -500 Descending Indianapolis TRACON
Sat 10:14:59 PM 39.9667 -85.8500 237° Southwest 123 142 2,600 -400 Descending Indianapolis TRACON

Login

Don't have an account? Register now (free) for customized features, flight alerts, and more!